When you browse on this site, cookies collect data to enhance your experience and personalize the content and advertising you see.
Visit our Privacy Policy to learn more. By continuing to use the site, you agree to this use of cookies and data.
  • In Romania
  • List of Countries
  • For 7 days
  • Water Temperature
  • Satellite Maps
  • Weather Map
  • Weather Widgets
  • user-avatar
    Login

    Hourly Weather Salzburg

    Today, 17 June, Monday

    Time Temperature Precipitation Wind Pressure Humidity
    00:00 +7°C° 0 mm 0 mps 630 mmHg 97%
    01:00 +7°C° 0 mm 0 mps 630 mmHg 98%
    02:00 +7°C° 0 mm 0 mps 629 mmHg 98%
    03:00 +7°C° 0 mm 0 mps 629 mmHg 98%
    04:00 +7°C° 0 mm 0 mps 629 mmHg 98%
    05:00 +8°C° 0 mm 0 mps 630 mmHg 95%
    06:00 +9°C° 0 mm 0 mps 630 mmHg 92%
    07:00 +10°C° 0 mm 0 mps 630 mmHg 89%
    08:00 +13°C° 0 mm 1 mps 631 mmHg 80%
    09:00 +14°C° 0 mm 1 mps 631 mmHg 72%
    10:00 +16°C° 0 mm 1 mps 632 mmHg 63%
    11:00 +18°C° 0.1 mm 1 mps 632 mmHg 60%
    12:00 +19°C° 0.1 mm 1 mps 632 mmHg 56%
    13:00 +19°C° 0.1 mm 2 mps 632 mmHg 53%
    14:00 +19°C° 0.6 mm 2 mps 631 mmHg 59%
    15:00 +18°C° 0.6 mm 2 mps 631 mmHg 66%
    16:00 +17°C° 0.6 mm 2 mps 630 mmHg 72%
    17:00 +16°C° 0.7 mm 1 mps 630 mmHg 78%
    18:00 +15°C° 0.7 mm 1 mps 630 mmHg 84%
    19:00 +14°C° 0.7 mm 1 mps 629 mmHg 91%
    20:00 +13°C° 0.2 mm 1 mps 629 mmHg 91%
    21:00 +12°C° 0.2 mm 1 mps 629 mmHg 92%
    22:00 +11°C° 0.2 mm 1 mps 629 mmHg 93%
    23:00 +10°C° 0 mm 1 mps 628 mmHg 93%

    Tomorrow, 18 June, Tuesday

    Time Temperature Precipitation Wind Pressure Humidity
    00:00 +10°C° 0 mm 1 mps 628 mmHg 93%
    01:00 +10°C° 0 mm 1 mps 628 mmHg 93%
    02:00 +9°C° 0 mm 1 mps 628 mmHg 92%
    03:00 +9°C° 0 mm 1 mps 627 mmHg 92%
    04:00 +9°C° 0 mm 1 mps 627 mmHg 91%
    05:00 +11°C° 0 mm 1 mps 628 mmHg 88%
    06:00 +11°C° 0 mm 0 mps 629 mmHg 84%
    07:00 +13°C° 0 mm 0 mps 629 mmHg 80%
    08:00 +15°C° 0.2 mm 0 mps 630 mmHg 73%
    09:00 +19°C° 0.2 mm 1 mps 630 mmHg 66%
    10:00 +21°C° 0.2 mm 1 mps 631 mmHg 59%
    11:00 +21°C° 0.9 mm 1 mps 630 mmHg 61%
    12:00 +21°C° 0.9 mm 1 mps 630 mmHg 64%
    13:00 +21°C° 0.9 mm 1 mps 630 mmHg 66%
    14:00 +20°C° 1.1 mm 1 mps 629 mmHg 70%
    15:00 +19°C° 1.1 mm 1 mps 629 mmHg 73%
    16:00 +19°C° 1.1 mm 1 mps 629 mmHg 77%
    17:00 +18°C° 1 mm 1 mps 628 mmHg 81%
    18:00 +15°C° 1 mm 0 mps 628 mmHg 84%
    19:00 +14°C° 1 mm 0 mps 628 mmHg 88%
    20:00 +13°C° 0.6 mm 0 mps 628 mmHg 89%
    21:00 +13°C° 0.6 mm 1 mps 628 mmHg 90%
    22:00 +12°C° 0.6 mm 1 mps 627 mmHg 91%
    23:00 +12°C° 0.2 mm 1 mps 627 mmHg 92%

    Day after tomorrow, 19 June, Wednesday

    Time Temperature Precipitation Wind Pressure Humidity
    00:00 +11°C° 0.2 mm 1 mps 627 mmHg 93%
    01:00 +11°C° 0.2 mm 1 mps 627 mmHg 94%
    02:00 +11°C° 0.1 mm 1 mps 626 mmHg 94%
    03:00 +11°C° 0.1 mm 1 mps 626 mmHg 93%
    04:00 +10°C° 0.1 mm 1 mps 626 mmHg 92%
    05:00 +12°C° 0 mm 1 mps 626 mmHg 90%
    06:00 +13°C° 0 mm 1 mps 627 mmHg 88%
    07:00 +13°C° 0 mm 0 mps 628 mmHg 86%
    08:00 +15°C° 0.7 mm 0 mps 628 mmHg 80%
    09:00 +18°C° 0.7 mm 1 mps 628 mmHg 75%
    10:00 +19°C° 0.7 mm 1 mps 628 mmHg 69%
    11:00 +19°C° 0.6 mm 1 mps 628 mmHg 67%
    12:00 +19°C° 0.6 mm 1 mps 628 mmHg 65%
    13:00 +19°C° 0.6 mm 1 mps 628 mmHg 64%
    14:00 +19°C° 0.5 mm 1 mps 628 mmHg 68%
    15:00 +18°C° 0.5 mm 1 mps 628 mmHg 73%
    16:00 +18°C° 0.5 mm 1 mps 627 mmHg 78%
    17:00 +16°C° 0.3 mm 1 mps 627 mmHg 81%
    18:00 +14°C° 0.3 mm 0 mps 627 mmHg 84%
    19:00 +14°C° 0.3 mm 0 mps 627 mmHg 86%
    20:00 +13°C° 0 mm 1 mps 626 mmHg 87%
    21:00 +12°C° 0 mm 1 mps 626 mmHg 87%
    22:00 +11°C° 0 mm 1 mps 626 mmHg 88%
    23:00 +10°C° 0 mm 1 mps 626 mmHg 88%

    20 June, Thursday

    Time Temperature Precipitation Wind Pressure Humidity
    00:00 +10°C° 0 mm 1 mps 626 mmHg 87%
    01:00 +10°C° 0 mm 1 mps 625 mmHg 87%
    02:00 +9°C° 0 mm 1 mps 625 mmHg 86%
    03:00 +9°C° 0 mm 1 mps 625 mmHg 86%
    04:00 +9°C° 0 mm 1 mps 625 mmHg 85%
    05:00 +11°C° 0 mm 1 mps 626 mmHg 82%
    06:00 +12°C° 0 mm 0 mps 627 mmHg 78%
    07:00 +14°C° 0 mm 0 mps 628 mmHg 75%
    08:00 +16°C° 0 mm 0 mps 629 mmHg 64%
    09:00 +20°C° 0 mm 1 mps 629 mmHg 54%
    10:00 +23°C° 0 mm 1 mps 630 mmHg 44%
    11:00 +23°C° 0 mm 1 mps 630 mmHg 41%
    12:00 +24°C° 0 mm 1 mps 630 mmHg 38%
    13:00 +25°C° 0 mm 1 mps 630 mmHg 35%
    14:00 +24°C° 0 mm 1 mps 629 mmHg 39%
    15:00 +24°C° 0 mm 2 mps 629 mmHg 43%
    16:00 +23°C° 0 mm 2 mps 629 mmHg 47%
    17:00 +20°C° 0.7 mm 2 mps 628 mmHg 59%
    18:00 +19°C° 0.7 mm 1 mps 628 mmHg 70%
    19:00 +16°C° 0.7 mm 1 mps 627 mmHg 81%
    20:00 +14°C° 1.2 mm 1 mps 627 mmHg 85%
    21:00 +13°C° 1.2 mm 1 mps 627 mmHg 90%
    22:00 +12°C° 1.2 mm 1 mps 627 mmHg 95%
    23:00 +12°C° 0.3 mm 1 mps 627 mmHg 95%

    21 June, Friday

    Time Temperature Precipitation Wind Pressure Humidity
    00:00 +11°C° 0.3 mm 1 mps 627 mmHg 96%
    01:00 +10°C° 0.3 mm 0 mps 627 mmHg 97%
    02:00 +10°C° 0.4 mm 0 mps 627 mmHg 97%
    03:00 +10°C° 0.4 mm 0 mps 627 mmHg 97%
    04:00 +10°C° 0.4 mm 0 mps 627 mmHg 97%
    05:00 +11°C° 0.2 mm 0 mps 627 mmHg 95%
    06:00 +11°C° 0.2 mm 0 mps 627 mmHg 94%
    07:00 +11°C° 0.2 mm 0 mps 627 mmHg 93%
    08:00 +14°C° 0.3 mm 1 mps 628 mmHg 85%
    09:00 +16°C° 0.3 mm 1 mps 628 mmHg 78%
    10:00 +18°C° 0.3 mm 1 mps 629 mmHg 70%
    11:00 +18°C° 0.9 mm 1 mps 629 mmHg 74%
    12:00 +18°C° 0.9 mm 1 mps 628 mmHg 78%
    13:00 +18°C° 0.9 mm 1 mps 628 mmHg 82%
    14:00 +18°C° 1.6 mm 1 mps 627 mmHg 82%
    15:00 +18°C° 1.6 mm 1 mps 627 mmHg 83%
    16:00 +16°C° 1.6 mm 1 mps 627 mmHg 84%
    17:00 +16°C° 1.2 mm 1 mps 627 mmHg 88%
    18:00 +15°C° 1.2 mm 1 mps 626 mmHg 91%
    19:00 +14°C° 1.2 mm 1 mps 626 mmHg 94%
    20:00 +13°C° 1.4 mm 1 mps 626 mmHg 95%
    21:00 +12°C° 1.4 mm 1 mps 626 mmHg 96%
    22:00 +11°C° 1.4 mm 1 mps 626 mmHg 98%
    23:00 +11°C° 1.3 mm 1 mps 626 mmHg 98%

    22 June, Saturday

    Time Temperature Precipitation Wind Pressure Humidity
    00:00 +11°C° 1.3 mm 1 mps 626 mmHg 99%
    01:00 +11°C° 1.3 mm 1 mps 626 mmHg 99%
    02:00 +11°C° 0.4 mm 1 mps 626 mmHg 99%
    03:00 +11°C° 0.4 mm 1 mps 626 mmHg 99%
    04:00 +10°C° 0.4 mm 0 mps 626 mmHg 99%
    05:00 +10°C° 0.2 mm 0 mps 626 mmHg 98%
    06:00 +10°C° 0.2 mm 0 mps 626 mmHg 98%
    07:00 +10°C° 0.2 mm 0 mps 626 mmHg 97%
    08:00 +12°C° 0.6 mm 1 mps 626 mmHg 96%
    09:00 +12°C° 0.6 mm 1 mps 626 mmHg 96%
    10:00 +13°C° 0.6 mm 1 mps 627 mmHg 95%
    11:00 +13°C° 1.1 mm 1 mps 627 mmHg 95%
    12:00 +13°C° 1.1 mm 2 mps 627 mmHg 94%
    13:00 +13°C° 1.1 mm 2 mps 627 mmHg 94%
    14:00 +13°C° 0.7 mm 2 mps 627 mmHg 94%
    15:00 +13°C° 0.7 mm 1 mps 627 mmHg 93%
    16:00 +13°C° 0.7 mm 1 mps 626 mmHg 93%
    17:00 +12°C° 0.4 mm 1 mps 626 mmHg 94%
    18:00 +12°C° 0.4 mm 1 mps 626 mmHg 95%
    19:00 +12°C° 0.4 mm 1 mps 626 mmHg 96%
    20:00 +10°C° 0.1 mm 0 mps 627 mmHg 97%
    21:00 +10°C° 0.1 mm 0 mps 627 mmHg 98%
    22:00 +9°C° 0.1 mm 0 mps 627 mmHg 98%
    23:00 +9°C° 0.2 mm 0 mps 627 mmHg 98%
    Show more